Temperature
16 16 17 17 14 11 13 13 13 14 13 13 12 12 11 10 12 11 10 10 10 11 11 12 12 12 12 12 12 13 13 13 13 13 13 14 14 14 14 14 14 14 14 14 14 14 14 14 14
16 16 17 16 12 12 12 12 13 13 13 13 12 11 10 9 9 9 10 10 10 11 11 11 11 11 12 12 12 12 13 13 13 13 13 13 13 13 13 14 14 14 14 14 14 14 14 14 13
15 16 16 11 11 12 13 12 12 12 13 12 11 10 9 9 9 9 9 10 10 10 11 11 11 11 11 11 12 12 12 12 12 12 12 13 13 13 13 13 13 13 13 14 14 13 13 13 13
16 16 15 11 11 11 12 11 11 12 12 12 10 8 8 8 8 8 9 9 10 10 10 11 10 11 11 11 11 11 12 12 12 12 12 12 12 12 12 12 13 13 13 13 13 13 13 13 13
15 15 11 10 11 11 10 11 12 11 11 10 10 8 7 8 8 8 9 9 10 10 10 10 10 10 10 11 11 11 11 11 12 12 12 12 12 12 12 12 12 12 12 13 13 13 13 13 13
15 12 10 10 10 11 11 11 11 10 10 9 9 7 7 7 8 8 9 9 9 10 10 10 10 10 10 10 11 11 11 11 11 11 11 12 12 12 12 12 12 12 12 12 12 13 12 12 13
13 9 10 10 10 10 10 11 10 9 9 9 9 7 6 7 7 8 8 8 9 9 9 10 10 10 10 10 10 10 10 11 11 11 11 11 11 12 12 12 12 12 12 12 12 12 12 12 12
13 9 9 9 10 10 10 10 9 9 8 8 9 7 6 7 7 7 8 8 8 8 9 9 9 9 10 10 10 10 10 10 10 11 11 11 11 11 11 11 11 11 11 12 12 12 12 12 12
12 8 8 9 9 9 9 9 8 8 8 8 7 7 7 7 7 7 8 8 8 8 8 8 9 9 9 9 9 10 10 10 10 10 10 10 11 11 11 11 11 11 11 11 11 12 12 12 11
10 7 8 9 9 8 8 8 8 7 7 6 6 7 7 7 7 7 7 7 7 8 8 8 8 8 8 9 9 9 9 9 9 9 10 10 10 10 10 10 10 11 11 11 11 11 11 11 11
8 7 7 8 8 8 7 7 7 7 5 6 6 6 6 6 6 6 7 7 7 7 7 7 7 8 8 8 8 8 8 9 9 9 9 9 9 10 10 10 10 10 10 10 10 11 10 11 11
7 7 8 8 8 8 7 6 6 6 6 7 7 6 6 6 6 6 6 6 6 6 6 6 7 7 7 7 7 8 8 8 8 8 8 9 9 9 9 9 9 10 10 10 10 10 10 10 10
6 6 7 7 7 7 6 6 5 5 6 6 6 6 6 6 5 5 5 6 6 6 6 6 6 6 7 7 7 7 7 7 7 8 8 8 8 8 8 9 9 9 9 9 9 9 9 10 10
6 6 6 6 6 6 5 5 5 5 5 5 5 5 5 5 5 5 5 5 5 5 5 5 5 6 6 6 6 6 6 7 7 7 7 7 7 8 8 8 8 8 8 8 8 8 9 9 9
6 5 5 6 6 5 5 4 4 5 5 4 4 4 5 4 5 5 5 4 5 5 5 5 5 5 5 6 6 6 6 6 6 6 6 7 7 7 7 7 7 7 7 7 8 8 8 8 8
5 5 5 5 5 5 5 4 4 5 4 4 4 4 4 4 4 4 4 4 4 4 4 4 4 4 5 5 5 5 5 5 6 6 6 6 6 6 6 6 6 7 7 7 7 7 7 7 8
4 4 5 5 5 4 4 4 4 4 4 3 3 3 3 3 3 4 4 4 4 4 4 4 4 4 4 5 5 5 5 5 5 5 5 5 5 5 5 6 6 6 6 6 6 6 6 7 7
4 4 4 4 4 4 3 3 3 3 3 3 3 3 3 3 3 3 3 3 3 3 3 3 3 4 4 4 4 4 4 4 4 4 4 5 5 5 5 5 5 5 5 5 6 6 6 6 6
4 4 4 4 4 3 2 3 3 3 2 2 2 2 2 2 3 3 3 3 3 3 3 3 3 3 3 3 3 4 4 4 4 4 4 4 4 4 4 4 4 5 5 5 5 5 5 5 5
4 4 3 3 4 3 2 2 2 2 2 2 1 1 2 2 2 2 2 3 2 2 2 2 3 3 3 3 3 3 3 3 3 3 3 3 3 3 3 4 4 4 4 4 4 4 4 5 4
4 3 3 3 3 3 2 2 2 1 2 2 1 1 1 2 2 2 2 2 2 2 2 2 2 2 2 2 2 2 2 2 3 3 3 3 3 2 3 3 3 3 3 3 3 3 3 4 4
4 3 3 3 2 1 2 2 2 0 0 1 1 1 1 1 1 2 2 2 2 2 2 2 1 1 2 2 2 1 1 2 2 2 2 2 2 2 2 2 2 2 2 2 3 3 3 3 3
2 3 2 2 1 0 0 1 1 0 0 0 0 1 1 1 1 1 1 2 2 1 1 1 1 1 1 1 1 1 1 1 1 1 1 1 1 1 1 1 1 2 2 2 2 2 2 2 2
2 2 1 0 0 1 1 0 1 -0 0 0 0 1 1 1 0 1 1 1 1 1 1 1 1 1 1 1 1 1 1 1 1 1 1 1 1 1 1 1 1 1 1 1 1 1 1 1 1
1 1 1 1 0 1 0 0 0 1 0 -0 0 1 1 0 0 0 0 1 1 1 0 0 0 0 0 0 0 0 0 0 0 0 0 0 0 0 0 0 0 0 0 1 1 1 1 1 1
0 1 2 2 1 1 -0 -0 0 -0 -0 0 1 1 1 0 0 -0 0 0 0 0 0 -0 -0 -0 -0 -0 -0 -0 -0 -0 -0 -0 -1 -1 -1 -1 -1 -1 -0 -0 -0 0 0 0 0 0 0
0 -0 0 0 -0 -1 -1 -1 -1 -1 -1 -1 -0 -0 -0 -0 -0 -0 -0 -0 -0 0 -0 -0 -1 -1 -1 -1 -1 -1 -1 -1 -1 -1 -1 -1 -1 -1 -1 -1 -1 -1 -1 -1 -0 -0 -0 -0 0
-0 -1 -1 -0 0 1 -0 -1 -0 0 -1 -2 -2 -1 -1 -1 -1 -1 -1 -1 -0 -0 -0 -1 -1 -1 -1 -1 -1 -1 -1 -1 -1 -1 -1 -1 -2 -1 -1 -1 -1 -1 -1 -1 -1 -1 -1 -0 -0
-1 -1 -1 -1 -1 -0 -0 0 -0 -1 -1 -2 -2 -1 -1 -1 -1 -1 -1 -1 -1 -1 -1 -1 -1 -1 -2 -2 -2 -2 -2 -2 -2 -2 -2 -2 -2 -2 -2 -2 -2 -2 -2 -2 -1 -1 -1 -1 -1
-1 -2 -2 -0 -1 -2 -2 -0 -0 -2 -2 -2 -1 -1 -1 -1 -1 -1 -1 -1 -1 -1 -1 -2 -2 -2 -2 -2 -2 -2 -3 -3 -3 -2 -3 -3 -3 -3 -3 -3 -3 -2 -2 -2 -2 -2 -2 -2 -1
Wind_Speed
14 10 2 4 5 5 2 3 2 1 2 2 4 6 7 5 3 4 1 1 3 2 3 3 6 8 9 10 10 11 11 11 12 12 12 12 12 11 11 12 12 12 12 12 13 13 13 13 13
9 3 5 5 5 3 3 4 2 2 3 4 5 5 6 5 4 4 1 1 4 4 4 4 6 8 9 9 10 11 11 11 11 11 12 12 11 11 11 12 12 12 12 12 12 12 12 12 12
6 2 4 5 4 6 6 4 3 2 4 3 4 5 4 3 3 2 1 3 6 6 6 5 8 9 9 9 9 10 11 10 11 11 11 11 11 11 11 11 12 12 11 11 11 11 10 11 11
3 5 5 5 3 3 4 3 2 3 4 5 4 5 3 3 2 1 2 5 7 6 7 6 9 9 9 9 9 10 10 10 10 11 11 10 11 11 11 11 11 12 11 10 10 10 10 10 10
4 4 4 2 2 2 1 1 2 2 2 3 4 5 3 3 4 5 6 7 7 7 8 8 9 9 9 10 9 9 10 10 10 10 10 10 10 10 10 10 11 11 10 10 10 9 9 9 9
4 4 4 3 3 1 1 0 2 3 2 2 4 5 3 1 5 5 6 7 8 8 9 9 9 9 9 9 10 9 9 9 10 10 9 10 10 10 10 10 10 10 9 9 9 8 8 8 9
4 4 4 5 4 3 2 1 3 2 2 0 2 5 3 0 3 5 7 8 8 9 9 10 10 9 9 9 10 10 9 9 10 10 10 10 9 9 10 10 9 9 9 8 8 7 7 7 8
4 5 3 3 5 4 1 2 2 3 2 1 2 6 4 2 2 5 6 7 7 8 8 9 10 10 9 8 9 10 10 9 9 10 10 9 9 9 9 9 9 8 8 8 8 7 7 7 8
4 4 3 5 5 4 1 2 3 3 4 3 2 2 3 5 5 6 6 5 5 5 6 8 8 9 8 8 7 8 9 9 9 9 10 9 8 8 7 8 8 8 8 7 7 7 7 7 7
5 4 4 2 3 4 2 2 2 2 3 2 3 3 4 6 6 6 5 4 3 4 4 6 6 7 7 6 6 7 7 7 8 8 8 8 7 7 7 7 7 7 7 7 6 6 7 6 6
3 4 2 1 1 3 2 1 1 4 2 4 5 5 4 5 5 5 4 3 2 2 2 3 5 6 6 6 6 6 6 6 7 8 7 7 7 6 6 6 6 6 6 5 5 5 5 5 5
3 1 1 0 1 1 2 2 1 2 5 4 6 7 5 5 5 5 4 3 2 2 1 2 4 5 5 5 5 5 5 5 5 5 6 6 5 5 5 4 4 4 4 4 4 4 4 4 3
2 1 1 2 4 2 2 1 1 3 3 3 6 6 6 6 4 3 4 4 3 2 1 0 2 3 4 4 4 4 4 4 4 4 5 6 4 4 4 3 4 4 4 4 4 3 4 4 3
2 2 1 0 0 0 1 3 1 5 3 5 6 6 6 6 5 3 3 3 2 2 1 1 1 2 3 3 3 3 4 4 4 4 4 5 4 4 3 3 3 3 3 3 3 2 3 2 2
2 2 3 2 1 1 2 3 6 6 4 5 5 5 5 5 5 5 5 4 4 3 1 1 1 2 2 1 2 3 3 3 4 4 4 5 5 4 4 3 3 3 2 3 3 3 3 2 2
2 2 2 3 2 2 3 8 6 5 6 6 6 5 5 4 5 5 5 4 4 4 2 1 1 1 1 1 1 2 3 3 3 3 4 4 4 4 3 2 3 3 3 3 2 2 1 1 2
2 1 4 4 3 2 4 8 5 5 6 7 7 6 6 4 4 5 5 5 4 4 4 2 2 1 0 1 1 2 3 3 3 3 3 3 3 3 3 2 2 2 2 2 2 2 1 1 2
4 3 4 6 3 2 5 10 8 6 7 8 7 7 6 6 7 5 5 5 4 4 4 3 2 2 1 1 1 1 2 2 3 3 2 2 2 3 3 2 2 2 2 1 1 1 1 1 1
3 4 6 7 3 3 8 12 11 7 7 7 7 7 7 8 6 5 5 5 4 3 3 3 3 3 2 1 1 1 1 0 1 3 2 2 3 3 3 3 3 2 1 1 1 1 1 1 1
3 4 6 6 3 4 8 12 10 7 8 8 9 8 8 7 5 5 5 5 5 4 4 3 4 3 3 3 3 3 2 2 1 2 3 3 3 3 3 3 2 2 1 1 1 1 1 1 1
4 5 6 6 6 4 5 9 6 4 5 5 7 7 7 8 8 7 5 6 5 5 5 4 4 4 4 3 2 1 1 0 0 1 1 3 3 3 3 3 3 3 1 1 1 1 1 1 1
5 4 4 4 2 4 2 6 8 4 5 6 7 7 7 7 7 7 6 7 7 6 5 4 4 3 4 4 3 4 3 2 2 2 2 3 3 3 3 3 3 3 2 2 2 1 1 1 2
4 3 3 4 3 4 3 4 8 2 6 8 9 9 8 7 7 7 7 8 7 6 5 4 4 4 4 4 5 5 4 3 2 2 2 2 3 2 3 3 2 2 2 2 2 2 2 2 2
1 3 3 2 1 4 6 6 8 5 7 6 6 7 7 6 6 6 5 5 5 5 4 4 4 4 4 4 5 5 5 4 3 3 3 2 2 2 2 3 3 2 2 2 2 3 2 2 2
3 3 3 4 2 6 2 4 8 7 6 6 6 7 6 6 6 5 5 5 5 5 5 5 5 4 4 5 6 6 6 6 6 5 4 3 2 2 3 3 3 3 3 3 3 2 3 3 3
3 3 4 4 5 6 3 6 7 4 4 4 4 4 4 4 5 6 6 6 6 6 5 5 6 5 5 5 6 5 5 4 4 5 5 4 4 4 4 3 3 4 4 4 3 3 4 3 4
3 3 3 3 2 5 6 7 8 2 4 3 3 2 4 4 4 5 5 5 5 6 6 6 6 5 5 6 6 5 5 4 5 5 4 4 4 4 4 4 4 4 4 4 4 3 4 4 4
2 4 3 3 3 5 6 6 5 5 6 6 5 5 5 4 4 4 4 4 5 5 5 5 5 5 5 5 5 5 4 5 5 4 4 4 4 4 4 4 4 4 5 5 4 4 4 5 5
3 2 3 3 4 4 5 7 5 6 5 7 7 6 5 5 5 5 5 4 3 2 3 4 4 4 4 5 4 4 4 5 4 4 5 4 4 4 4 5 5 5 5 4 4 4 5 6 5
4 6 6 4 6 5 4 9 5 5 5 5 6 6 5 4 4 5 4 3 2 3 3 4 4 5 5 4 4 4 4 4 4 4 5 4 4 5 5 5 5 5 5 5 5 6 6 6 6
Wind_Direction
330 330 50 56 61 63 187 248 214 108 61 67 68 83 97 89 97 138 198 118 53 35 6 22 67 66 63 63 64 63 61 59 59 59 60 63 66 70 73 71 69 71 73 74 74 73 71 72 74
329 344 54 61 97 133 238 244 203 180 146 125 67 69 76 74 64 96 49 36 65 52 31 24 72 72 68 67 67 65 64 62 60 60 60 60 62 66 68 70 68 67 69 71 74 75 74 71 73
327 46 78 78 119 179 201 212 193 119 81 91 75 50 74 85 68 89 325 91 70 51 38 37 65 68 69 71 70 68 64 64 62 61 62 61 60 64 65 70 69 66 66 69 71 71 75 74 73
44 48 58 83 159 229 203 198 177 113 64 55 99 81 64 44 95 87 86 86 81 53 43 48 66 67 65 66 72 69 66 64 63 61 62 62 61 62 64 67 72 70 67 67 70 68 69 72 73
59 78 76 88 208 250 224 186 120 90 82 54 91 105 88 25 68 80 81 87 86 59 48 52 63 65 66 63 64 69 66 65 63 62 62 61 60 61 62 66 71 72 70 69 69 69 70 66 67
57 74 107 181 205 226 265 149 108 83 93 79 89 111 131 49 76 84 78 77 80 69 52 56 61 61 62 63 61 64 67 65 64 62 62 62 61 62 62 65 68 70 71 69 70 67 67 69 65
104 104 153 175 180 215 250 49 101 115 90 41 124 120 147 31 89 93 84 74 71 66 55 46 49 55 57 61 61 58 61 66 64 61 61 64 62 61 63 64 65 67 66 67 68 67 65 68 65
114 108 130 175 183 211 230 66 68 83 118 352 103 139 177 211 126 93 86 74 67 61 54 45 44 45 46 55 61 60 58 63 66 62 59 62 65 63 63 61 60 62 66 64 64 66 65 64 64
83 89 180 199 189 190 156 77 32 41 82 42 44 144 162 137 108 88 77 62 53 55 46 43 42 41 42 50 59 63 63 59 64 66 63 62 59 61 60 58 60 62 64 61 60 60 61 57 57
73 146 203 212 173 157 130 115 141 90 69 56 48 59 104 115 108 101 94 82 65 48 42 40 37 36 39 46 53 61 63 62 60 62 63 61 59 61 61 65 62 60 62 60 56 56 55 49 46
92 157 167 6 106 129 122 109 131 143 195 204 179 158 140 120 120 121 122 123 120 99 45 33 34 32 40 40 48 51 56 59 59 58 58 60 58 58 60 63 61 59 56 51 47 48 39 34 36
107 62 142 40 31 84 140 150 123 191 220 199 170 160 159 150 157 158 154 147 122 94 62 20 37 35 39 44 45 47 49 50 49 54 59 62 51 45 50 52 47 48 42 30 33 28 20 15 25
125 130 59 85 64 79 96 191 187 246 230 161 148 155 170 170 175 177 160 147 133 115 92 21 27 45 38 48 46 44 42 49 53 58 60 59 52 38 39 44 42 35 29 20 11 7 3 2 9
123 98 21 354 44 283 152 274 205 244 188 155 157 172 184 178 177 178 162 157 158 161 190 199 21 58 51 52 51 43 36 46 55 53 46 51 52 45 34 28 30 24 11 3 0 354 354 349 1
74 48 343 275 215 186 128 287 233 224 182 179 187 185 181 184 178 190 189 180 178 181 189 206 153 53 60 60 65 43 35 42 42 41 42 47 51 49 43 22 14 4 348 357 4 7 12 7 4
49 60 292 265 177 179 161 256 244 194 176 199 204 190 179 192 191 200 193 185 183 179 187 217 171 55 54 47 73 55 42 33 35 42 39 45 46 43 44 23 359 356 4 10 360 5 14 358 349
34 252 256 277 207 175 196 251 250 202 192 212 212 201 193 195 202 206 203 188 186 186 190 200 187 169 189 86 77 64 48 26 20 33 28 34 36 36 32 10 350 3 13 10 359 3 349 333 337
223 233 254 253 241 215 240 256 260 230 216 222 220 210 207 210 218 209 199 188 186 190 188 190 187 193 213 135 74 64 47 17 6 9 13 26 23 27 25 6 353 12 10 356 9 358 349 303 298
195 223 260 266 253 254 250 261 262 246 232 233 228 219 220 224 226 206 195 184 178 187 192 196 190 205 198 176 184 179 210 261 337 347 6 11 11 11 13 4 352 358 345 321 338 355 346 334 345
232 258 271 290 288 261 269 273 265 230 222 226 225 226 225 226 223 210 206 189 188 196 202 206 205 216 215 192 199 191 197 206 257 319 352 8 14 7 7 5 341 334 328 330 330 357 330 331 5
250 236 251 268 306 290 295 289 261 245 225 235 231 228 225 218 214 210 214 208 197 202 206 214 214 227 215 185 175 172 147 246 303 302 318 344 351 352 349 340 333 331 307 257 292 290 315 289 305
256 246 253 265 281 273 226 283 275 259 262 244 238 235 231 229 220 211 218 214 208 211 206 211 215 231 209 181 180 179 188 216 246 242 253 311 329 336 337 330 327 319 313 252 260 297 286 240 270
238 282 274 265 238 277 251 239 281 271 260 252 240 235 234 226 218 215 221 213 211 207 203 210 216 225 206 193 191 188 198 219 238 234 247 280 313 318 319 314 308 310 307 272 260 276 260 242 256
264 350 346 19 88 267 228 208 276 244 237 255 240 235 231 225 222 217 222 212 205 202 199 205 214 224 206 202 200 194 199 209 228 238 234 246 263 284 301 306 306 309 304 291 265 262 261 254 253
24 60 5 340 318 253 205 216 251 255 244 235 238 235 231 221 216 215 215 217 211 207 204 204 209 224 211 205 207 203 204 206 216 224 223 233 246 260 264 290 288 293 296 294 293 256 258 254 251
228 166 173 230 252 282 292 237 250 269 276 256 246 233 225 226 224 220 215 218 217 215 212 210 213 225 219 210 212 206 206 209 221 223 221 225 233 244 254 262 271 280 284 289 291 264 251 252 250
167 203 197 176 260 272 264 274 292 282 305 305 298 266 238 238 239 232 226 224 220 215 214 207 208 221 216 213 209 207 206 213 226 224 227 230 238 252 250 253 261 274 277 276 271 259 248 249 249
172 157 119 160 232 266 280 270 261 277 278 279 274 263 258 256 257 247 237 234 227 216 212 203 205 216 222 209 207 213 206 217 224 218 224 233 241 247 247 249 251 260 266 268 262 265 252 246 250
178 193 186 185 199 214 272 270 235 241 254 255 257 254 252 252 255 255 250 244 231 215 218 210 208 213 227 215 207 206 213 223 219 222 228 235 243 243 242 247 250 252 256 258 252 259 257 244 248
198 200 175 195 239 221 237 271 268 252 267 259 265 269 266 260 264 261 241 238 235 234 240 219 215 223 219 210 211 210 216 219 223 233 238 242 241 245 246 247 246 249 253 250 249 256 263 245 244
Height
1511 1511 1513 1515 1520 1532 1535 1531 1526 1525 1526 1528 1527 1527 1529 1534 1537 1544 1542 1540 1541 1542 1542 1543 1543 1544 1544 1544 1544 1544 1544 1544 1543 1543 1543 1543 1543 1542 1542 1542 1542 1542 1542 1542 1542 1542 1542 1542 1542
1511 1512 1515 1515 1526 1538 1536 1528 1526 1525 1526 1527 1528 1529 1530 1535 1537 1539 1539 1539 1540 1541 1542 1542 1543 1543 1543 1543 1543 1543 1543 1543 1543 1543 1543 1543 1542 1542 1542 1542 1542 1542 1542 1542 1542 1543 1543 1543 1543
1511 1512 1514 1518 1529 1534 1530 1526 1526 1526 1526 1526 1529 1531 1533 1537 1538 1539 1539 1539 1540 1541 1541 1541 1542 1542 1542 1542 1543 1543 1542 1543 1542 1543 1542 1542 1542 1542 1542 1542 1542 1542 1542 1542 1543 1543 1543 1544 1544
1512 1513 1515 1524 1530 1529 1526 1526 1525 1525 1526 1527 1529 1533 1536 1539 1539 1539 1539 1539 1540 1540 1541 1541 1541 1541 1541 1542 1542 1542 1542 1542 1542 1542 1542 1542 1542 1542 1541 1541 1542 1542 1542 1542 1543 1543 1543 1544 1544
1511 1513 1521 1530 1530 1528 1526 1525 1525 1526 1527 1529 1530 1534 1537 1539 1539 1539 1539 1539 1539 1539 1540 1540 1540 1541 1541 1541 1541 1541 1541 1541 1541 1541 1541 1541 1541 1541 1541 1541 1541 1541 1542 1542 1542 1543 1543 1544 1544
1512 1513 1528 1533 1531 1528 1526 1526 1526 1527 1529 1530 1531 1534 1537 1539 1538 1538 1538 1539 1539 1539 1539 1539 1540 1540 1540 1540 1540 1540 1540 1540 1540 1540 1540 1541 1541 1541 1540 1540 1541 1541 1541 1541 1542 1542 1543 1543 1544
1512 1518 1526 1529 1530 1529 1527 1526 1527 1528 1529 1530 1531 1534 1536 1538 1538 1538 1538 1538 1539 1539 1539 1538 1539 1539 1539 1539 1539 1539 1539 1539 1539 1539 1539 1539 1540 1540 1540 1540 1540 1540 1541 1541 1541 1541 1542 1543 1543
1511 1518 1525 1528 1528 1527 1526 1527 1528 1528 1529 1531 1531 1532 1534 1536 1536 1536 1537 1537 1538 1538 1538 1538 1538 1538 1538 1538 1538 1538 1538 1538 1538 1538 1538 1538 1539 1539 1539 1539 1539 1540 1540 1540 1540 1541 1541 1542 1542
1512 1522 1528 1526 1525 1525 1525 1526 1528 1529 1529 1530 1530 1531 1532 1534 1535 1535 1535 1536 1536 1537 1537 1537 1537 1537 1537 1537 1537 1537 1537 1537 1537 1537 1537 1537 1537 1538 1538 1538 1538 1539 1539 1539 1539 1540 1540 1541 1541
1513 1524 1524 1522 1522 1523 1524 1526 1527 1529 1529 1530 1530 1530 1531 1532 1533 1533 1533 1533 1534 1535 1536 1536 1536 1536 1536 1536 1536 1536 1536 1536 1536 1536 1536 1536 1536 1536 1537 1537 1537 1537 1538 1538 1538 1539 1539 1540 1540
1516 1522 1522 1522 1521 1522 1524 1525 1527 1527 1529 1528 1528 1528 1530 1530 1531 1531 1531 1532 1533 1534 1534 1535 1535 1535 1535 1535 1535 1534 1534 1535 1535 1534 1534 1535 1535 1535 1535 1535 1536 1536 1536 1536 1537 1538 1538 1538 1539
1519 1521 1521 1522 1522 1522 1523 1524 1526 1526 1526 1526 1526 1527 1527 1528 1528 1529 1530 1530 1531 1532 1532 1533 1533 1533 1534 1534 1534 1533 1533 1533 1533 1533 1533 1533 1533 1533 1534 1534 1534 1534 1534 1535 1535 1536 1537 1537 1538
1520 1522 1522 1522 1522 1523 1523 1524 1525 1524 1524 1524 1525 1525 1525 1526 1527 1528 1529 1529 1529 1530 1530 1531 1531 1531 1532 1532 1532 1532 1531 1531 1531 1531 1531 1532 1532 1532 1532 1532 1533 1533 1533 1533 1534 1534 1535 1536 1536
1521 1522 1522 1522 1522 1523 1523 1523 1524 1521 1522 1522 1522 1522 1523 1524 1524 1525 1526 1526 1527 1527 1528 1529 1529 1529 1530 1530 1530 1530 1530 1529 1529 1529 1530 1530 1530 1530 1530 1531 1531 1531 1532 1532 1532 1533 1533 1533 1534
1521 1523 1523 1522 1521 1522 1523 1523 1521 1519 1520 1520 1520 1520 1520 1521 1522 1522 1524 1524 1525 1525 1526 1526 1527 1527 1528 1528 1528 1528 1528 1528 1528 1528 1528 1528 1528 1528 1528 1529 1529 1529 1530 1530 1530 1531 1531 1531 1532
1523 1526 1526 1522 1521 1521 1525 1522 1517 1517 1517 1517 1517 1517 1517 1518 1519 1520 1521 1522 1522 1523 1523 1524 1524 1524 1525 1525 1526 1526 1526 1526 1526 1526 1526 1526 1526 1526 1526 1526 1527 1527 1527 1527 1528 1528 1528 1528 1529
1527 1529 1526 1522 1520 1520 1522 1519 1514 1515 1515 1514 1514 1514 1514 1515 1516 1517 1518 1519 1519 1520 1520 1521 1521 1521 1522 1523 1523 1523 1524 1524 1523 1523 1523 1523 1523 1523 1523 1524 1524 1524 1524 1524 1525 1525 1525 1526 1526
1527 1528 1525 1523 1519 1520 1521 1516 1512 1512 1512 1510 1510 1511 1511 1511 1512 1513 1514 1515 1516 1516 1517 1517 1518 1519 1519 1519 1520 1520 1521 1521 1521 1521 1521 1521 1521 1521 1521 1521 1521 1521 1521 1522 1522 1522 1523 1523 1523
1522 1523 1522 1519 1517 1519 1517 1512 1509 1509 1509 1507 1506 1507 1507 1507 1508 1510 1511 1512 1513 1513 1513 1514 1515 1515 1515 1515 1515 1516 1516 1517 1518 1518 1518 1518 1518 1518 1518 1518 1518 1518 1518 1518 1519 1519 1520 1520 1520
1521 1522 1522 1519 1517 1518 1516 1510 1505 1504 1503 1502 1502 1502 1502 1503 1503 1505 1506 1508 1509 1509 1510 1510 1511 1511 1512 1512 1513 1513 1514 1514 1515 1515 1515 1515 1515 1515 1515 1515 1515 1515 1515 1516 1516 1516 1516 1516 1517
1520 1521 1521 1521 1518 1517 1517 1509 1503 1500 1499 1499 1497 1497 1497 1497 1498 1499 1501 1503 1504 1505 1505 1506 1507 1508 1508 1509 1509 1510 1511 1511 1511 1511 1511 1512 1512 1512 1512 1512 1512 1512 1512 1512 1513 1513 1513 1513 1514
1518 1517 1517 1518 1522 1522 1519 1516 1500 1499 1497 1495 1493 1493 1492 1493 1494 1495 1497 1498 1499 1500 1501 1502 1503 1503 1504 1505 1506 1506 1506 1506 1507 1507 1508 1509 1509 1509 1509 1509 1509 1509 1509 1509 1509 1510 1510 1511 1511
1517 1516 1516 1517 1520 1523 1520 1520 1502 1498 1496 1491 1489 1488 1488 1490 1490 1491 1491 1493 1494 1496 1497 1498 1498 1499 1500 1501 1502 1502 1503 1503 1504 1504 1504 1505 1505 1505 1506 1505 1505 1505 1505 1506 1506 1506 1507 1507 1508
1516 1517 1517 1519 1522 1521 1516 1517 1503 1496 1489 1485 1484 1484 1484 1485 1486 1486 1488 1489 1490 1491 1492 1493 1494 1494 1495 1496 1497 1498 1498 1499 1499 1500 1500 1500 1501 1501 1501 1501 1501 1501 1501 1502 1502 1503 1503 1503 1504
1517 1521 1524 1522 1525 1516 1512 1511 1499 1486 1482 1481 1480 1480 1480 1481 1481 1482 1482 1483 1484 1485 1487 1488 1489 1489 1491 1492 1492 1493 1494 1495 1495 1495 1495 1495 1496 1496 1497 1497 1497 1497 1497 1498 1498 1499 1499 1499 1499
1519 1518 1522 1522 1520 1515 1513 1508 1491 1482 1479 1477 1477 1477 1476 1477 1477 1477 1478 1478 1479 1481 1482 1482 1483 1484 1486 1487 1488 1489 1490 1490 1491 1491 1490 1491 1491 1492 1492 1493 1493 1493 1493 1494 1494 1494 1495 1495 1495
1517 1520 1518 1522 1523 1524 1512 1503 1488 1481 1478 1476 1475 1474 1474 1474 1473 1473 1473 1474 1475 1476 1477 1478 1479 1480 1481 1482 1483 1484 1485 1486 1486 1486 1486 1486 1487 1487 1488 1489 1489 1489 1489 1489 1490 1490 1490 1490 1490
1516 1518 1522 1522 1519 1514 1508 1504 1491 1479 1477 1476 1474 1472 1472 1472 1471 1470 1470 1470 1471 1471 1472 1473 1474 1475 1476 1477 1478 1479 1480 1481 1481 1481 1481 1482 1482 1482 1483 1483 1484 1484 1484 1485 1485 1485 1485 1486 1486
1516 1518 1517 1519 1518 1514 1510 1496 1480 1476 1474 1473 1472 1470 1470 1470 1469 1467 1467 1467 1467 1467 1468 1468 1469 1470 1471 1472 1473 1473 1475 1476 1476 1476 1476 1476 1477 1477 1478 1478 1479 1479 1479 1480 1480 1480 1480 1480 1480
1511 1512 1514 1514 1514 1515 1514 1494 1474 1473 1471 1471 1469 1469 1468 1468 1467 1465 1464 1464 1463 1464 1464 1464 1464 1465 1466 1467 1468 1468 1470 1470 1470 1470 1471 1471 1472 1472 1472 1473 1473 1474 1474 1474 1474 1474 1475 1475 1475